Torna al catalogo

TUBSAT A

AttivoScienzaSSO
NORAD 21577·PAYLOAD·🇩🇪 Germany

Lanciato Jul 17, 1991 da Guiana Space Centre

Loading…

Prossimi Passaggi (prossime 24 ore)

TLE

AggiornatoSource: Space-Track

Epoca: Sep 14, 2026, 14:16 UTC

1 21577U 91050D   26257.59504060  .00000074  00000-0  36627-4 0  9997
2 21577  98.3749 325.5309 0006061   2.9056 357.2167 14.40572666846253

Traccia TUBSAT A in tempo reale con AllMySat

Download on the App Store